[[{"header":{"parameterUnit":"m.s-1","parameterCategory":1,"la1":30.2992,"la2":30.254,"lo1":-89.0895,"lo2":-89.0443,"dy":0.0025,"dx":0.0025,"nx":19,"ny":19,"refTime":"2026-04-02T09:00:00:Z","depth":0,"parameterNumber":2,"parameterNumberName":"U-component_of_WINDS"},"data":[0,0,0,-5.3879,-5.3882,-5.4035,-5.4035,-5.4229,-5.423,0,0,0,0,0,0,0,0,0,0,0,-5.3834,-5.3835,-5.3878,-5.3882,-5.4035,-5.4035,-5.4228,-5.423,0,0,0,0,0,0,0,0,0,0,0,-5.3833,-5.3835,-5.3837,-5.3883,-5.4035,-5.4036,-5.4228,-5.4113,0,0,0,0,0,0,0,0,0,0,-5.3965,-5.3924,-5.3835,-5.3837,-5.3884,-5.4035,-5.4036,-5.4107,-5.412,-5.4159,0,-5.4196,0,-5.4217,-5.4243,-5.4244,0,0,0,-5.3881,-5.3914,-5.3955,-5.3837,-5.3885,-5.4034,-5.3966,-5.4114,-5.4129,-5.4176,-5.4199,-5.4206,-5.422,-5.4244,-5.4245,-5.4482,-5.4483,0,0,-5.3872,-5.3861,-5.3945,-5.3964,-5.3943,-5.3961,-5.397,-5.4123,-5.4146,-5.42,-5.4211,-5.4223,-5.4246,-5.4247,-5.4481,-5.4482,0,0,0,-5.3849,-5.3855,-5.3893,-5.3957,-5.3984,-5.3965,-5.3976,-5.4139,-5.4153,-5.4213,-5.4225,-5.4247,-5.4249,-5.448,-5.4481,-5.4526,0,0,0,-5.3844,-5.3842,-5.3889,-5.3883,-5.3982,-5.4064,-5.3989,-5.4142,-5.416,-5.4224,-5.4247,-5.4251,-5.4478,-5.448,-5.4523,-5.4548,0,0,0,-5.3824,-5.3839,-5.3862,-5.3882,-5.3948,-5.4062,-5.4084,-5.4146,-5.4168,-5.4244,-5.4252,-5.4477,-5.448,-5.4519,-5.4542,-5.4605,0,0,0,-5.3798,-5.3899,-5.3862,-5.3981,-5.3947,-5.4091,-5.4083,-5.4191,-5.4262,-5.4248,-5.4478,-5.4481,-5.4518,-5.4538,-5.4601,-5.4652,-5.4674,0,0,-5.3918,-5.3913,-5.3984,-5.3956,-5.4103,-5.4069,-5.4223,-5.4298,-5.4315,-5.4425,-5.4431,-5.4524,-5.4542,-5.4604,-5.4808,-5.4825,0,0,0,-5.4018,-5.4067,-5.411,-5.4179,-5.4241,-5.4296,-5.435,-5.4378,-5.4473,-5.437,-5.4566,-5.4577,-5.4614,-5.4639,-5.4653,-5.4684,-5.4494,-5.4493,-5.4493,-5.4167,-5.4187,-5.4304,-5.4343,-5.4411,-5.4467,-5.4523,-5.457,-5.4568,-5.4615,-5.4645,-5.4767,-5.4796,-5.4807,-5.4839,-5.4678,-5.4679,-5.4679,-5.4679,-5.4341,-5.4414,-5.4414,-5.4527,-5.4548,-5.4643,-5.4703,-5.4699,-5.4788,-5.4745,-5.4778,-5.4724,-5.4825,-5.4854,-5.4682,-5.4682,-5.4681,-5.4681,-5.4681,-5.4437,-5.4475,-5.4511,-5.4615,-5.4693,-5.473,-5.4817,-5.4833,-5.4848,-5.4882,-5.4914,-5.4914,-5.4911,-5.4898,-5.4898,-5.4899,-5.4899,-5.4899,-5.4899,-5.4519,-5.4559,-5.4631,-5.471,-5.4758,-5.4822,-5.4884,-5.4931,-5.4986,-5.499,-5.499,-5.4981,-5.4834,-5.4793,-5.4906,-5.4905,-5.4904,-5.4903,-5.4903,-5.4679,-5.4647,-5.4758,-5.4807,-5.4901,-5.4976,-5.4999,-5.5093,-5.5135,-5.5177,-5.5165,-5.5055,-5.5048,-5.5036,-5.5002,-5.5162,-5.5162,-5.5162,-5.5162,-5.4755,-5.4757,-5.4875,-5.4951,-5.5028,-5.5061,-5.5185,-5.5236,-5.5282,-5.5309,-5.529,-5.5248,-5.5236,-5.5237,-5.5221,-5.5189,-5.5393,-5.5393,-5.5394,-5.4853,-5.4863,-5.4965,-5.5014,-5.509,-5.5155,-5.5272,-5.5358,-5.5404,-5.5403,-5.5329,-5.5319,-5.5253,-5.5231,-5.5221,-5.5196,-5.5139,0,0]},{"header":{"parameterUnit":"m.s-1","parameterCategory":1,"la1":30.2992,"la2":30.254,"lo1":-89.0895,"lo2":-89.0443,"dy":0.0025,"dx":0.0025,"nx":19,"ny":19,"refTime":"2026-04-02T09:00:00:Z","depth":0,"parameterNumber":3,"parameterNumberName":"V-component_of_WINDS"},"data":[0,0,0,2.764,2.7643,2.7786,2.7786,2.7926,2.7927,0,0,0,0,0,0,0,0,0,0,0,2.7575,2.7575,2.764,2.7643,2.7786,2.7786,2.7926,2.7927,0,0,0,0,0,0,0,0,0,0,0,2.7574,2.7575,2.7575,2.7643,2.7785,2.7787,2.7926,2.7833,0,0,0,0,0,0,0,0,0,0,2.7701,2.7618,2.7575,2.7575,2.7644,2.7785,2.7787,2.7829,2.7839,2.7844,0,2.7846,0,2.7889,2.7934,2.7935,0,0,0,2.7659,2.761,2.767,2.7575,2.7645,2.7785,2.7726,2.7835,2.7846,2.7857,2.7848,2.7854,2.7891,2.7935,2.7935,2.7922,2.7921,0,0,2.7651,2.7587,2.7663,2.7676,2.7655,2.7721,2.773,2.7842,2.7827,2.7849,2.7858,2.7893,2.7936,2.7936,2.7923,2.7922,0,0,0,2.7618,2.758,2.7639,2.7669,2.7698,2.7725,2.7735,2.7822,2.7847,2.786,2.7895,2.7936,2.7937,2.7924,2.7923,2.7821,0,0,0,2.7614,2.7561,2.7634,2.7596,2.7696,2.7763,2.7712,2.7839,2.7854,2.7894,2.7936,2.7938,2.7925,2.7923,2.7826,2.7782,0,0,0,2.7573,2.7557,2.757,2.7592,2.7652,2.7762,2.7794,2.7844,2.7874,2.7935,2.7939,2.7926,2.7924,2.783,2.779,2.7761,0,0,0,2.751,2.7474,2.7567,2.7541,2.7651,2.7699,2.7794,2.7833,2.7872,2.7937,2.7925,2.7923,2.7832,2.7794,2.7765,2.7725,2.7702,0,0,2.7429,2.7462,2.7452,2.7539,2.7555,2.7682,2.7683,2.7779,2.7842,2.7891,2.7892,2.7824,2.779,2.7762,2.7599,2.758,0,0,0,2.7404,2.7396,2.7415,2.7452,2.7526,2.7587,2.769,2.7726,2.7772,2.7855,2.7808,2.779,2.7776,2.7759,2.7744,2.7736,2.7913,2.7913,2.7913,2.7195,2.7281,2.727,2.7374,2.7408,2.7517,2.7552,2.7619,2.7692,2.768,2.7695,2.7586,2.7564,2.7553,2.7544,2.7681,2.7681,2.768,2.768,2.7084,2.7086,2.7189,2.7216,2.7306,2.7328,2.7431,2.7483,2.7516,2.7581,2.7573,2.7637,2.753,2.7527,2.7673,2.7674,2.7675,2.7676,2.7676,2.6956,2.6972,2.7019,2.7084,2.7123,2.7228,2.7256,2.7337,2.7412,2.7404,2.7429,2.7431,2.7443,2.7411,2.741,2.741,2.741,2.741,2.7409,2.6804,2.6861,2.6876,2.6955,2.6991,2.7047,2.7158,2.7194,2.7254,2.7311,2.7311,2.7386,2.7505,2.7533,2.7404,2.7405,2.7405,2.7406,2.7406,2.6658,2.6705,2.6728,2.6764,2.6864,2.6898,2.7002,2.707,2.7111,2.7122,2.72,2.7275,2.7314,2.7327,2.735,2.7182,2.7182,2.7182,2.7182,2.655,2.6579,2.6622,2.6675,2.6735,2.6833,2.6854,2.694,2.7035,2.7066,2.7102,2.714,2.715,2.7183,2.7199,2.7223,2.7026,2.7025,2.7025,2.6465,2.6504,2.6508,2.6606,2.6691,2.6761,2.6784,2.6838,2.6955,2.7021,2.7092,2.7098,2.7161,2.7178,2.7242,2.7265,2.731,0,0]}]]